Stations météo

réclame
Mon MeteoGroup
Hoburg A, Suède (2679): Température de l'air & dewpoint: 17.10.2018 22:00:00 - 23.10.2018 22:00:00 (CEST)Hoburg A, Suède (2679): Vitesse du vent & gusts: 17.10.2018 22:00:00 - 23.10.2018 22:00:00 (CEST)Hoburg A, Suède (2679): Direction du vent: 17.10.2018 22:00:00 - 23.10.2018 22:00:00 (CEST)Hoburg A, Suède (2679): reduced air pressure: 17.10.2018 22:00:00 - 23.10.2018 22:00:00 (CEST)Hoburg A, Suède (2679): visibility: 17.10.2018 22:00:00 - 23.10.2018 22:00:00 (CEST)Hoburg A, Suède (2679): Quantités de précipitations: 17.10.2018 22:00:00 - 23.10.2018 22:00:00 (CEST)
Date & Time tt [°C] td [°C] ff [km/h] ff [knt] fx [km/h] fx [knt] dd ppp [hPa] vv [km] rr [mm]
23.10.2018 22:00:00 7,0 1,9 46 25 64 35 NNW 991,4 50 0,0
23.10.2018 21:00:00 7,0 2,5 45 24 69 38 NNW 990,8 50 0,1
23.10.2018 20:00:00 7,2 2,7 43 23 69 38 NNW 990,6 50 0,0
23.10.2018 19:00:00 7,8 2,1 48 26 64 35 NNW 990,3 50 0,0
23.10.2018 18:00:00 8,4 3,6 45 25 59 32 NNW 989,9 50 0,0
23.10.2018 17:00:00 8,6 4,0 39 21 53 29 NNW 989,2 50 0,0
23.10.2018 16:00:00 9,3 5,1 34 19 51 27 NNW 988,9 50 0,0
23.10.2018 15:00:00 10,6 6,0 36 19 48 26 NW 988,6 48 0,0
23.10.2018 14:00:00 10,8 6,9 31 17 45 25 NW 988,9 50 0,0
23.10.2018 13:00:00 10,6 8,0 29 16 46 25 W 989,1 39 0,0
23.10.2018 12:00:00 10,8 8,0 32 18 56 31 W 989,6 50 0,0
23.10.2018 11:00:00 10,0 8,1 35 19 63 34 W 990,2 50 0,0
23.10.2018 10:00:00 9,6 8,0 38 21 70 38 W 990,9 50 0,0
23.10.2018 09:00:00 9,2 7,5 49 26 71 39 WSW 992,2 42 0,2
23.10.2018 08:00:00 8,8 7,1 52 28 71 39 WSW 994,0 15 0,3
23.10.2018 07:00:00 8,4 6,9 50 27 68 37 SW 996,9 14 0,5
23.10.2018 06:00:00 7,6 6,1 52 28 68 37 SW 1000,5 10 1,0
23.10.2018 05:00:00 7,3 5,6 47 25 63 34 WSW 1003,8 10 1,6
23.10.2018 04:00:00 7,4 5,2 40 22 61 33 WSW 1006,7 7 0,5
23.10.2018 03:00:00 8,9 4,1 45 24 61 33 W 1009,1 23 0,0
23.10.2018 02:00:00 8,9 4,5 39 21 55 30 W 1010,6 22 0,0
23.10.2018 01:00:00 8,9 4,1 39 21 52 28 W 1012,6 25 0,0
23.10.2018 00:00:00 8,6 4,2 32 18 56 30 W 1014,1 23 0,0
22.10.2018 23:00:00 8,5 3,9 35 19 56 30 W 1015,2 29 0,0
22.10.2018 22:00:00 8,8 3,4 39 21 56 30 WNW 1015,8 44 0,0
22.10.2018 21:00:00 9,2 2,7 36 19 54 29 W 1016,6 46 0,0
22.10.2018 20:00:00 9,6 2,7 31 17 47 26 W 1016,8 50 0,0
22.10.2018 19:00:00 9,7 3,4 26 14 39 21 W 1016,9 50 0,0
22.10.2018 18:00:00 10,0 3,5 26 14 39 21 WNW 1017,3 50 0,0
22.10.2018 17:00:00 10,5 3,8 27 15 37 20 W 1017,1 49 0,0
22.10.2018 16:00:00 11,1 4,1 26 14 41 22 W 1016,8 46 0,0
22.10.2018 15:00:00 11,5 4,7 27 15 50 27 W 1016,6 41 0,0
22.10.2018 14:00:00 10,5 5,1 29 16 50 27 W 1016,5 37 0,0
22.10.2018 13:00:00 11,1 5,4 37 20 47 25 WNW 1016,3 36 0,0
22.10.2018 12:00:00 11,0 5,9 32 18 51 28 WNW 1016,7 41 0,0
22.10.2018 11:00:00 11,1 6,2 32 17 51 28 WNW 1016,7 34 0,0
22.10.2018 10:00:00 10,8 6,5 39 21 49 26 WNW 1016,4 36 0,0
22.10.2018 09:00:00 11,1 8,3 29 15 44 24 W 1016,2 50 0,0
22.10.2018 08:00:00 11,2 9,9 27 15 49 26 W 1015,5 7 0,0
22.10.2018 07:00:00 11,1 10,3 34 19 49 26 WSW 1015,4 2,2 0,0
22.10.2018 06:00:00 11,0 10,4 33 18 49 26 WSW 1015,4 2,0 0,7
22.10.2018 05:00:00 11,1 10,3 34 18 48 26 WSW 1015,5 2,9 0,0
22.10.2018 04:00:00 11,2 10,1 34 18 51 28 WSW 1015,9 4,0 0,0
22.10.2018 03:00:00 11,3 10,4 36 19 55 30 WSW 1016,7 4,5 0,0
22.10.2018 02:00:00 11,1 10,0 37 20 55 30 WSW 1017,3 7 0,0
22.10.2018 01:00:00 11,1 10,0 40 21 56 30 SW 1017,8 11 0,0
22.10.2018 00:00:00 11,2 9,6 40 22 56 30 SW 1018,8 19 0,0
21.10.2018 23:00:00 11,0 9,3 37 20 53 28 SW 1019,3 29 0,0
21.10.2018 22:00:00 10,8 9,4 36 20 47 25 SW 1020,0 23 0,0
21.10.2018 21:00:00 10,7 9,1 33 18 46 25 SW 1020,6 21 0,0
21.10.2018 20:00:00 10,7 8,8 34 18 48 26 SW 1021,3 29 0,0
21.10.2018 19:00:00 10,6 8,7 33 18 48 26 SW 1021,7 28 0,0
21.10.2018 18:00:00 10,6 8,5 33 18 46 25 SW 1021,9 28 0,0
21.10.2018 17:00:00 10,4 8,0 32 18 44 24 SW 1022,3 28 0,0
21.10.2018 16:00:00 10,6 8,4 28 15 41 22 SW 1022,9 23 0,0
21.10.2018 15:00:00 10,8 8,2 29 15 41 22 SW 1023,6 25 0,0
21.10.2018 14:00:00 10,9 7,6 28 15 37 20 SW 1023,9 29 0,0
21.10.2018 13:00:00 10,9 7,9 26 14 34 18 WSW 1024,5 36 0,0
21.10.2018 12:00:00 11,0 8,2 23 12 33 18 SW 1024,9 41 0,0
21.10.2018 11:00:00 10,7 7,8 24 13 33 18 WSW 1025,2 50 0,0
21.10.2018 10:00:00 10,4 8,0 20 11 27 15 WSW 1025,1 46 0,0
21.10.2018 09:00:00 9,5 8,1 16 9 23 12 WSW 1025,0 39 0,0
21.10.2018 08:00:00 8,7 7,6 16 9 22 12 WSW 1025,1 49 0,0
21.10.2018 07:00:00 7,6 7,3 12 7 14 8 SW 1025,0 17 0,0
21.10.2018 06:00:00 7,8 7,4 9 5 11 6 WSW 1025,0 13 0,0
21.10.2018 05:00:00 7,9 7,5 8 4 11 6 W 1024,9 23 0,0
21.10.2018 04:00:00 7,8 7,2 9 5 11 6 W 1025,0 35 0,0
21.10.2018 03:00:00 8,4 8,0 5 3 9 5 W 1025,1 50 0,0
21.10.2018 02:00:00 8,1 7,2 6 4 11 6 WNW 1024,8 47 0,0
21.10.2018 01:00:00 8,2 7,3 8 4 11 6 NW 1024,7 50 0,0
21.10.2018 00:00:00 8,5 7,6 6 3 9 5 W 1024,6 50 0,0
20.10.2018 23:00:00 8,4 7,2 8 4 9 5 W 1024,6 50 0,0
20.10.2018 22:00:00 8,4 6,9 6 4 8 4 W 1024,6 50 0,0
20.10.2018 21:00:00 8,4 6,9 5 3 12 6 W 1024,1 50 0,0
20.10.2018 20:00:00 8,2 6,5 6 3 13 7 WNW 1024,0 50 0,0
20.10.2018 19:00:00 8,0 6,6 9 5 16 8 NW 1023,7 50 0,0
20.10.2018 18:00:00 8,0 6,3 9 5 18 10 NNW 1023,3 43 0,0
20.10.2018 17:00:00 9,4 7,0 11 6 21 11 NW 1023,0 47 0,0
20.10.2018 16:00:00 9,9 7,1 15 8 22 12 NW 1022,8 41 0,0
20.10.2018 15:00:00 9,8 6,9 14 7 22 12 NW 1022,8 50 0,0
20.10.2018 14:00:00 9,8 7,1 17 9 21 12 NW 1022,6 45 0,0
20.10.2018 13:00:00 9,8 7,2 15 8 24 13 NW 1022,4 41 0,0
20.10.2018 12:00:00 9,5 7,1 16 9 25 14 NNW 1022,4 47 0,0
20.10.2018 11:00:00 9,4 7,0 19 10 25 14 WNW 1022,2 46 0,0
20.10.2018 10:00:00 9,6 7,5 16 8 23 13 WNW 1022,0 42 0,0
20.10.2018 09:00:00 9,0 7,0 15 8 19 10 W 1021,5 50 0,0
20.10.2018 08:00:00 8,5 6,6 13 7 20 11 W 1021,4 50 0,0
20.10.2018 07:00:00 8,8 6,9 11 6 20 11 W 1021,2 50 0,0
20.10.2018 06:00:00 8,8 6,6 11 6 17 9 W 1021,5 50 0,0
20.10.2018 05:00:00 8,4 6,2 13 7 19 10 W 1021,7 50 0,0
20.10.2018 04:00:00 8,5 7,1 12 6 19 10 WSW 1021,8 44 0,0
20.10.2018 03:00:00 7,9 6,4 12 7 24 13 WSW 1022,0 50 0,0
20.10.2018 02:00:00 8,5 6,5 14 8 24 13 WSW 1022,4 50 0,0
20.10.2018 01:00:00 8,2 6,3 16 8 24 13 WSW 1022,7 50 0,0
20.10.2018 00:00:00 8,1 5,6 15 8 21 11 SW 1023,0 50 0,0
19.10.2018 23:00:00 7,9 4,7 14 8 19 10 SW 1023,2 50 0,0
19.10.2018 22:00:00 7,1 4,7 12 7 14 8 WSW 1023,5 50 0,0
19.10.2018 21:00:00 7,5 5,0 9 5 10 5 WSW 1023,6 50 0,0
19.10.2018 20:00:00 7,5 5,3 8 4 9 5 WSW 1023,4 50 0,0
19.10.2018 19:00:00 8,1 5,7 5 3 11 6 W 1023,4 50 0,0
19.10.2018 18:00:00 7,5 4,8 7 4 13 7 WNW 1023,5 50 0,0
19.10.2018 17:00:00 9,3 5,8 8 5 15 8 WNW 1023,4 50 0,0
19.10.2018 16:00:00 10,2 5,6 10 6 16 9 WNW 1023,7 50 0,0
19.10.2018 15:00:00 10,8 6,0 10 5 16 9 NW 1023,9 48 0,0
19.10.2018 14:00:00 11,1 6,6 9 5 15 8 NW 1024,2 44 0,0
19.10.2018 13:00:00 10,3 6,3 9 5 15 8 NW 1024,3 50 0,0
19.10.2018 12:00:00 10,5 6,8 9 5 16 8 NW 1024,3 50 0,0
19.10.2018 11:00:00 10,3 8,2 11 6 17 9 NNW 1024,4 47 0,0
19.10.2018 10:00:00 10,3 8,6 11 6 17 9 NNW 1024,2 50 0,0
19.10.2018 09:00:00 9,6 8,0 13 7 17 9 NNW 1023,8 50 0,0
19.10.2018 08:00:00 7,7 6,3 13 7 14 8 NNW 1023,4 50 0,0
19.10.2018 07:00:00 8,5 6,8 12 7 15 8 NNW 1023,1 50 0,0
19.10.2018 06:00:00 7,6 6,1 12 6 17 9 NNW 1022,9 50 0,0
19.10.2018 05:00:00 8,2 6,2 11 6 17 9 N 1022,6 50 0,0
19.10.2018 04:00:00 8,1 5,9 12 6 17 9 N 1022,5 50 0,0
19.10.2018 03:00:00 8,5 6,0 12 6 21 12 N 1022,5 50 0,0
19.10.2018 02:00:00 9,4 6,5 13 7 24 13 N 1022,6 50 0,0
19.10.2018 01:00:00 9,5 6,4 15 8 24 13 N 1022,5 50 0,0
19.10.2018 00:00:00 9,9 6,2 16 8 27 15 N 1022,1 50 0,0
18.10.2018 23:00:00 10,2 6,2 17 9 27 15 N 1022,0 50 0,0
18.10.2018 22:00:00 10,4 6,7 15 8 26 14 N 1021,5 50 0,0
18.10.2018 21:00:00 10,2 6,5 14 8 22 12 NNW 1020,9 50 0,0
18.10.2018 20:00:00 10,2 7,1 10 5 20 11 N 1020,5 50 0,0
18.10.2018 19:00:00 10,6 7,8 14 7 19 11 N 1020,1 50 0,0
18.10.2018 18:00:00 10,7 9,1 11 6 23 12 N 1019,5 27 0,0
18.10.2018 17:00:00 12,0 9,7 12 7 23 12 N 1018,9 31 0,0
18.10.2018 16:00:00 12,0 10,2 14 7 22 12 NNW 1018,4 10 0,0
18.10.2018 15:00:00 12,2 11,1 12 6 20 11 NNW 1018,1 4,3 0,0
18.10.2018 14:00:00 12,1 11,8 11 6 19 10 NNW 1017,9 2,1 0,0
18.10.2018 13:00:00 11,5 11,2 10 6 18 10 W 1018,0 1,1 0,0
18.10.2018 12:00:00 11,5 11,2 10 6 19 11 W 1017,8 0,1 0,0
18.10.2018 11:00:00 11,3 10,8 12 6 21 11 W 1017,8 0,2 0,0
18.10.2018 10:00:00 12,2 10,8 14 8 21 11 W 1017,7 8 0,0
18.10.2018 09:00:00 11,6 10,5 11 6 18 10 W 1017,6 5 0,0
18.10.2018 08:00:00 10,4 9,9 12 6 15 8 WSW 1017,4 2,3 0,0
18.10.2018 07:00:00 10,2 9,9 11 6 15 8 SW 1017,7 1,1 0,0
18.10.2018 06:00:00 10,2 9,9 10 6 13 7 SW 1017,8 0,7 0,0
18.10.2018 05:00:00 10,2 9,9 11 6 13 7 SW 1018,1 0,7 0,0
18.10.2018 04:00:00 10,3 9,8 11 6 13 7 WSW 1018,5 1,0 0,0
18.10.2018 03:00:00 10,4 9,9 9 5 13 7 SW 1018,8 1,8 0,0
18.10.2018 02:00:00 10,5 9,9 10 5 13 7 SSW 1019,2 2,2 0,0
18.10.2018 01:00:00 10,6 9,5 10 5 16 9 WSW 1019,7 4,1 0,0
18.10.2018 00:00:00 10,8 10,0 10 5 19 10 S 1019,8 3,6 0,0
17.10.2018 23:00:00 11,5 10,6 14 8 19 10 SSW 1019,9 4,1 0,0
17.10.2018 22:00:00 11,1 10,5 11 6 18 10 S 1020,4 2,7 0,0

tt = Température de l'air
td = dewpoint
ff = Vitesse du vent
fx = gusts
dd = Direction du vent
ppp = reduced air pressure
vv = visibility
rr = Quantités de précipitations

stations d'obs. à proximité